Погода в Мауне

Ботсвана     19°59′32″S   23°25′18″E
темп.,
°C
ветер,
м/с
пор.,
м/с
влажн.,
%
обл.,
%
осадки,
мм/ч
давл.,
гПа
погр.,
м
10 августа, ср
ср1023:00+16ююв33140 0.0 101930
02:00+14ююв33120 0.0 101918
05:00+13юв33150 0.0 101925
08:00+14вюв26180 0.0 1021121
11:00+26в3380 0.0 1019886
14:00+31юв2240 0.0 10141963
17:00+30юв3250 0.0 10132098
20:00+20юв33120 0.0 101634
11 августа, чт
чт1123:00+16юв34250 0.0 101852
02:00+15юв22250 0.0 101813
05:00+13в35270 0.0 101866
08:00+15вюв38300 0.0 1020177
11:00+28в45160 0.0 10181114
14:00+32всв2390 0.0 10132564
17:00+31вюв1290 0.0 10122663
20:00+21юв22170 0.0 101511
12 августа, пт
пт1223:00+18вюв36240 0.0 101773
02:00+16в36270 0.0 101670
05:00+15в33290 0.0 101731
08:00+17всв23260 0.0 101888
11:00+29св34120 0.0 1016978
14:00+34ссв1270 0.0 10122694
17:00+32ю1170 0.0 10102769
20:00+22юв22140 0.0 101311
13 августа, сб
сб1323:00+19вюв33161 0.0 101423
02:00+16св332175 0.0 101426
05:00+15ссв222553 0.0 101311
08:00+18ссв362293 0.0 1014119
11:00+30ссз45134 0.0 10121103
14:00+34зсз34747 0.0 10082773
17:00+33з34773 0.0 10062965
20:00+23юз2313100 0.0 100913
14 августа, вс
вс1423:00+20с11150 0.0 101011
02:00+19ссз33162 0.0 100927
05:00+15ююз33210 0.0 101240
08:00+16ююв39150 0.0 1015243
11:00+25ююв56130 0.0 10141023
14:00+30ю44102 0.0 10101770
17:00+29ю441297 0.0 10091848
20:00+19ю39248 0.0 1013141